Henderson, NV

1:42 AM PDT on May 30, 2017 (GMT -0700)
Henderson

Weather History for KHND - October, 2012

Change the Weather History Date:

Wednesday, October 17, 2012

  Actual Average (KLAS) Record (KLAS)
Temperature  
Mean Temperature 71 °F -  
Max Temperature 83 °F 80 °F 94 °F (1991)
Min Temperature 59 °F 53 °F 38 °F (1938)
Cooling Degree Days 6    
Growing Degree Days 21 (Base 50)    
Moisture  
Dew Point 38 °F    
Average Humidity 33    
Maximum Humidity 57    
Minimum Humidity 14    
Precipitation  
Precipitation 0.00 in - - ()
Sea Level Pressure  
Sea Level Pressure 29.88 in    
Wind  
Wind Speed 7 mph (ESE)    
Max Wind Speed 12 mph    
Max Gust Speed -    
Visibility 10 miles    
Events      
Averages and records for this station are not official NWS values.
T = Trace of Precipitation, MM = Missing Value Source: NWS Daily Summary

Daily Weather History Graph

Daily Weather History Graph

Search for Another Location

Airport or City:

Trip Planner

Search our weather history database for the weather conditions in past years. The results will help you decide how hot, cold, wet, or windy it might be!

Date:

Astronomy

Oct. 17, 2012 Rise Set
Actual Time 6:49 AM PDT 6:01 PM PDT
Civil Twilight 6:23 AM PDT 6:27 PM PDT
Nautical Twilight 5:53 AM PDT 6:57 PM PDT
Astronomical Twilight 5:24 AM PDT 7:26 PM PDT
Moon 9:22 AM PDT (10/17) 7:47 PM PDT (10/17)
Length of Visible Light 12h 03m
Length of Day
11h 11m
Waxing Crescent, 8% of the Moon is Illuminated
Oct 17
Waxing Crescent
Oct 21
First Quarter
Oct 29
Full
Nov 6
Last Quarter
Nov 13
New

Hourly Weather History & Observations

Time (PDT) Temp. Dew Point Humidity Pressure Visibility Wind Dir Wind Speed Gust Speed Precip Events Conditions
12:56 AM 70.0 °F 39.9 °F 33% 29.76 in 10.0 mi SSW 9.2 mph - N/A   Clear
1:56 AM 66.9 °F 41.0 °F 39% 29.77 in 10.0 mi SSW 8.1 mph - N/A   Clear
3:56 AM 63.0 °F 41.9 °F 46% 29.78 in 10.0 mi SSE 8.1 mph - N/A   Clear
4:56 AM 59.0 °F 43.9 °F 57% 29.81 in 10.0 mi SSE 3.5 mph - N/A   Clear
5:56 AM 59.9 °F 43.9 °F 55% 29.84 in 10.0 mi South 4.6 mph - N/A   Clear
6:56 AM 61.9 °F 43.9 °F 52% 29.87 in 10.0 mi Calm Calm - N/A   Clear
7:56 AM 65.8 °F 46.9 °F 50% 29.89 in 10.0 mi East 6.9 mph - N/A   Clear
8:56 AM 72.0 °F 41.9 °F 34% 29.91 in 10.0 mi ENE 8.1 mph - N/A   Clear
9:56 AM 73.9 °F 39.9 °F 29% 29.92 in 10.0 mi NE 10.4 mph - N/A   Clear
10:56 AM 75.9 °F 39.9 °F 27% 29.92 in 10.0 mi NE 11.5 mph - N/A   Clear
11:56 AM 77.9 °F 38.8 °F 25% 29.90 in 10.0 mi ENE 9.2 mph - N/A   Clear
12:56 PM 81.0 °F 36.9 °F 21% 29.88 in 10.0 mi ENE 9.2 mph - N/A   Clear
1:56 PM 81.9 °F 36.0 °F 19% 29.86 in 10.0 mi ENE 5.8 mph - N/A   Clear
2:56 PM 82.9 °F 34.9 °F 18% 29.86 in 10.0 mi ENE 8.1 mph - N/A   Clear
3:56 PM 83.8 °F 32.0 °F 15% 29.86 in 10.0 mi NNE 6.9 mph - N/A   Clear
4:56 PM 82.4 °F 28.4 °F 14% 29.98 in 10.0 mi NE 6.9 mph - N/A   Clear
5:56 PM 79.0 °F 32.0 °F 18% 29.86 in 10.0 mi ENE 3.5 mph - N/A   Clear
6:56 PM 72.0 °F 36.0 °F 27% 29.89 in 10.0 mi Calm Calm - 0.00 in   Clear
7:56 PM 66.9 °F 37.9 °F 34% 29.90 in 10.0 mi South 6.9 mph - N/A   Clear
8:56 PM 65.8 °F 34.9 °F 32% 29.91 in 10.0 mi SSE 8.1 mph - N/A   Clear
9:56 PM 63.0 °F 36.9 °F 38% 29.93 in 10.0 mi SSW 5.8 mph - N/A   Clear
10:56 PM 59.9 °F 36.9 °F 42% 29.95 in 10.0 mi South 5.8 mph - N/A   Clear
11:56 PM 59.9 °F 36.0 °F 41% 29.96 in 10.0 mi South 8.1 mph - N/A   Clear